Location: Peebles
(55.6412°N, 3.1714°W)
Time: 09:25:48
(UTC+00:00)

RS-15 - Visible Passes

Search period start: 29 November 2023 00:00
Search period end: 09 December 2023 00:00
Orbit: 1890 x 2154 km, 64.8° (Epoch: 28 November)

Date Brightness Start Highest point End Pass type
(mag) Time Alt. Az. Time Alt. Az. Time Alt. Az.
29 Nov 8.5 01:50:24 52° NNE 01:50:24 52° NNE 01:59:44 10° ENE visible
29 Nov 8.2 03:58:09 40° NW 04:03:03 65° NNE 04:14:09 10° ESE visible
29 Nov 8.0 06:05:55 15° NW 06:15:48 68° SW 06:26:39 10° SSE visible
29 Nov10.221:00:14NE21:00:14NE20:32:58Svisible
29 Nov 9.6 23:07:59 18° NE 23:07:59 18° NE 23:10:07 10° NE visible
30 Nov 8.7 01:15:45 44° NE 01:15:45 44° NE 01:23:21 10° ENE visible
30 Nov 8.2 03:23:31 48° NNW 03:26:39 60° NNE 03:37:44 10° E visible
30 Nov 7.9 05:31:17 21° NW 05:39:52 79° SW 05:50:53 10° SE visible
30 Nov 9.8 22:33:23 12° NE 22:33:23 12° NE 22:34:00 10° NE visible
01 Dec 9.0 00:41:08 35° NE 00:41:08 35° NE 00:47:00 10° ENE visible
01 Dec 8.3 02:48:54 55° N 02:50:12 57° NNE 03:01:16 10° E visible
01 Dec 7.9 04:56:40 29° NW 05:03:50 90° SW 05:14:56 10° SE visible
01 Dec 8.5 07:05:03 10° NW 07:15:00 37° WSW 07:24:37 10° S visible
01 Dec10.021:58:48NE21:58:48NE21:33:14SSWvisible
02 Dec 9.3 00:06:34 27° NE 00:06:34 27° NE 00:10:44 10° ENE visible
02 Dec 8.4 02:14:20 55° NNE 02:14:20 55° NNE 02:24:46 10° E visible
02 Dec 7.9 04:22:06 38° NW 04:27:42 81° NE 04:38:49 10° SE visible
02 Dec 8.3 06:29:52 13° NW 06:39:24 46° WSW 06:49:32 10° S visible
02 Dec 9.8 20:58:49 10° SSW 21:24:15 - NE 20:59:29 12° SSW visible
02 Dec 9.5 23:32:01 19° NE 23:32:01 19° NE 23:34:30 10° NE visible
03 Dec 8.6 01:39:48 48° NE 01:39:48 48° NE 01:48:18 10° ENE visible
03 Dec 8.0 03:47:34 48° NW 03:51:29 73° NNE 04:02:36 10° ESE visible
03 Dec 8.1 05:55:20 20° NW 06:03:41 56° WSW 06:14:12 10° SSE visible
03 Dec 9.5 20:23:27 10° S 20:25:45 18° S 20:25:45 18° S visible
03 Dec 9.8 22:57:31 13° NE 22:57:31 13° NE 22:58:20 10° NE visible
04 Dec 8.9 01:05:18 38° NE 01:05:18 38° NE 01:11:51 10° ENE visible
04 Dec 8.1 03:13:05 58° NNW 03:15:10 66° NNE 03:26:16 10° ESE visible
04 Dec 7.9 05:20:51 27° NW 05:27:52 66° SW 05:38:39 10° SSE visible
04 Dec 8.9 07:30:03 10° NW 07:37:53 22° W 07:45:32 10° SW visible
04 Dec 9.2 19:48:20 10° S 19:52:03 22° SSE 19:52:03 22° SSE visible
04 Dec 9.7 21:58:18 10° SW 22:23:05 - NE 21:59:54 15° SW visible
05 Dec 9.2 00:30:51 28° NE 00:30:51 28° NE 00:35:28 10° ENE visible
05 Dec 8.2 02:38:38 61° NNE 02:38:46 61° NNE 02:49:51 10° E visible
05 Dec 7.8 04:46:25 37° NW 04:51:56 77° SW 05:02:55 10° SSE visible
05 Dec 8.7 06:54:12 12° NW 07:02:30 29° WSW 07:11:13 10° SSW visible
05 Dec 9.1 19:13:31 10° SSE 19:18:20 23° SE 19:18:20 23° SE visible
05 Dec 9.3 21:22:18 10° SW 21:48:41 - NE 21:26:10 25° SSW visible
05 Dec 9.5 23:56:28 20° ENE 23:56:28 20° ENE 23:59:07 10° ENE visible
06 Dec 8.4 02:04:16 53° NE 02:04:16 53° NE 02:13:23 10° E visible
06 Dec 7.8 04:12:03 50° NW 04:15:55 88° SW 04:26:59 10° SE visible
06 Dec 8.4 06:19:50 18° WNW 06:27:00 36° WSW 06:36:31 10° S visible
06 Dec 9.0 18:39:05 10° SSE 18:44:36 22° SE 18:44:36 22° SE visible
06 Dec 8.8 20:46:28 10° SSW 20:52:26 35° SSW 20:52:26 35° SSW visible
06 Dec 9.8 22:59:21 10° WSW 23:22:09 12° ENE 23:22:50 10° ENE visible
07 Dec 8.8 01:29:57 40° ENE 01:29:57 40° ENE 01:36:54 10° E visible
07 Dec 7.9 03:37:44 66° NNW 03:39:47 82° NE 03:50:55 10° SE visible
07 Dec 8.2 05:45:32 26° WNW 05:51:25 44° WSW 06:01:29 10° S visible
07 Dec 9.1 18:05:09 10° SE 18:10:49 19° ESE 18:10:49 19° ESE visible
07 Dec 8.5 20:10:50 10° SSW 20:18:40 44° S 20:18:40 44° S visible
07 Dec 9.4 22:22:55 10° WSW 22:47:54 - NE 22:26:30 23° WSW visible
08 Dec 9.2 00:55:42 29° ENE 00:55:42 29° ENE 01:00:27 10° ENE visible
08 Dec 8.0 03:03:30 74° NNE 03:03:35 74° NNE 03:14:42 10° ESE visible
08 Dec 8.0 05:11:18 37° WNW 05:15:42 54° WSW 05:26:12 10° SSE visible
08 Dec 9.1 07:19:13 10° WNW 07:25:07 16° W 07:30:54 10° SW visible
08 Dec 9.2 17:32:01 10° ESE 17:37:01 14° E 17:37:01 14° E visible
08 Dec 8.3 19:35:25 10° S 19:44:51 46° SE 19:44:51 46° SE visible
08 Dec 8.9 21:46:36 10° SW 21:52:40 36° WSW 21:52:40 36° WSW visible
